Find Starlink 36313

NORAD ID: 68156 Int'l Des: 2026-049 Owner: SPXS Country: US Constellation: starlink operational
LEOCIRCULARRETROGRADE

リアルタイム位置

3D地球を読み込み中...

Starlink 36313について

説明を読み込み中...

次回通過

Passes for default location (London). Set your location on the main map for personalized predictions.

高度履歴

Loading altitude history...

軌道要素

1 68156U 26049Q 26119.83335647 -.01850123 00000-0 -25370-1 0 9995
2 68156 97.2836 141.6548 0001568 94.7794 218.2026 15.60475557 5902
Epoch: Apr 29, 2026 • Age: 6 hours

現在のステータス

高度 392.4 km
速度 7.68 km/s
衛星直下点 26.10°N, 116.78°W
打ち上げ日 Mar 13, 2026
運用期間 0.1 years
タイプ internet

技術仕様

分類 Payload
質量 575.00 kg
乾燥質量 530.00 kg
総質量 575.00 kg
長さ 0.30 m
直径 4.10 m
スパン 29.00 m
形状 Box + pan
製造者 SPXS
バスタイプ Starlink V2MO
フェーズステータス In Orbit
所有者/国 SPXS/US

Most Searched